Date Time,Air Temp,Sky Temp,Clarity,Light Level,Rain Sensor,Readings
2011-08-14 00:00:08,25.4,1.9,23.5,0.3,2.3,111
2011-08-14 00:05:08,25.4,1.3,24.0,0.3,2.3,111
2011-08-14 00:10:08,25.4,1.3,24.1,0.3,2.3,111
2011-08-14 00:15:08,25.4,1.2,24.1,0.4,2.3,110
2011-08-14 00:20:08,25.3,1.3,23.9,0.4,2.3,111
2011-08-14 00:25:08,25.2,1.4,23.8,0.4,2.3,111
2011-08-14 00:30:08,24.6,5.8,18.8,0.4,2.3,112
2011-08-14 00:35:08,21.8,9.1,12.7,0.2,2.3,111
2011-08-14 00:40:08,21.0,9.4,11.5,0.2,2.3,112
2011-08-14 00:45:08,20.7,10.2,10.5,0.2,2.3,111
2011-08-14 00:50:08,20.6,9.4,11.2,0.2,2.3,112
2011-08-14 00:55:08,20.6,7.2,13.4,0.3,2.3,112
2011-08-14 01:00:08,20.6,8.5,12.1,0.3,2.3,111
2011-08-14 01:05:09,20.6,8.5,12.1,0.3,2.3,111
2011-08-14 01:10:09,20.6,10.2,10.3,0.3,2.4,112
2011-08-14 01:15:09,20.6,9.7,10.9,0.3,2.3,111
2011-08-14 01:20:09,20.6,10.1,10.5,0.4,2.3,112
2011-08-14 01:25:09,20.6,10.2,10.4,0.3,2.4,112
2011-08-14 01:30:09,20.6,10.1,10.5,0.3,2.4,111
2011-08-14 01:35:09,20.6,9.7,10.9,0.4,2.4,112
2011-08-14 01:40:09,20.6,7.6,13.0,0.5,2.4,112
2011-08-14 01:45:09,20.6,5.3,15.3,0.8,2.5,111
2011-08-14 01:50:09,20.5,2.9,17.6,0.9,2.5,111
2011-08-14 01:55:09,20.4,3.6,16.8,0.8,2.3,112
2011-08-14 02:00:09,20.3,2.5,17.8,0.9,2.3,111
2011-08-14 02:05:09,20.2,3.6,16.6,0.8,2.3,112
2011-08-14 02:10:09,20.2,7.8,12.3,0.5,2.3,111
2011-08-14 02:15:09,20.2,8.3,12.0,0.3,2.3,111
2011-08-14 02:20:09,20.3,9.4,10.9,0.3,2.3,112
2011-08-14 02:25:09,20.3,9.3,11.1,0.4,2.3,112
2011-08-14 02:30:09,20.4,7.7,12.7,0.4,2.3,111
2011-08-14 02:35:09,20.3,6.7,13.7,0.4,2.3,111
2011-08-14 02:40:09,20.3,4.7,15.6,0.4,2.3,112
2011-08-14 02:45:09,20.3,1.5,18.8,0.6,2.3,111
2011-08-14 02:50:09,22.7,-0.0,22.7,0.6,2.3,112
2011-08-14 02:55:09,24.3,1.3,23.0,0.5,2.3,111
2011-08-14 03:00:09,24.2,1.8,22.4,0.7,2.3,110
2011-08-14 03:05:09,24.8,2.0,22.8,0.8,2.3,111
2011-08-14 03:10:09,24.9,2.0,22.9,0.6,2.3,111
2011-08-14 03:15:09,25.0,2.9,22.0,0.6,2.3,112
2011-08-14 03:25:03,21.0,7.2,13.8,0.3,2.4,100
2011-08-14 03:30:03,20.6,7.2,13.4,0.3,2.3,112
2011-08-14 03:35:03,20.4,7.7,12.7,0.3,2.3,111
2011-08-14 03:40:03,20.3,7.8,12.6,0.3,2.3,111
2011-08-14 03:45:03,20.3,7.4,12.9,0.3,2.3,112
2011-08-14 03:50:03,20.2,7.5,12.7,0.2,2.3,112
2011-08-14 03:55:03,20.2,8.1,12.0,0.2,2.3,112
2011-08-14 04:00:03,20.1,8.7,11.5,0.2,2.3,111
2011-08-14 04:05:03,20.1,8.2,11.9,0.2,2.3,111
2011-08-14 04:10:03,20.1,8.7,11.5,0.2,2.3,111
2011-08-14 04:15:03,20.2,8.4,11.8,0.2,2.3,112
2011-08-14 04:20:03,20.2,7.5,12.6,0.2,2.3,112
2011-08-14 04:25:03,20.2,7.2,13.0,0.3,2.3,111
2011-08-14 04:30:03,20.1,8.1,12.0,0.2,2.3,112
2011-08-14 04:35:03,20.1,8.6,11.5,0.2,2.3,111
2011-08-14 04:40:03,20.1,9.0,11.1,0.2,2.3,111
2011-08-14 04:45:03,20.2,9.1,11.1,0.3,2.3,112
2011-08-14 04:50:03,20.2,8.4,11.7,0.3,2.3,111
2011-08-14 04:55:03,20.2,9.2,11.0,0.5,2.3,112
2011-08-14 05:00:03,20.2,8.8,11.4,0.8,2.3,112
2011-08-14 05:05:03,20.2,9.0,11.2,1.4,2.3,111
2011-08-14 05:10:03,20.2,9.1,11.1,2.4,2.3,111
2011-08-14 05:15:03,20.2,9.1,11.1,4.3,2.3,112
2011-08-14 05:20:03,20.2,9.5,10.7,6.8,2.3,111
2011-08-14 05:25:03,20.3,9.3,11.0,10.8,2.3,112
2011-08-14 05:30:03,20.3,9.1,11.2,15.6,2.3,111
2011-08-14 05:35:03,20.3,9.4,10.9,19.8,2.3,111
2011-08-14 05:40:03,20.3,9.4,10.9,24.3,2.3,112
2011-08-14 05:45:03,20.4,9.5,10.9,26.8,2.3,111
2011-08-14 05:50:03,20.3,9.3,11.0,28.1,2.2,112
2011-08-14 05:55:03,20.3,9.5,10.9,29.3,2.3,111
2011-08-14 06:00:03,20.3,9.5,10.8,30.3,2.3,112
2011-08-14 06:05:03,20.3,9.4,10.9,30.9,2.3,112
2011-08-14 06:10:03,20.4,9.6,10.8,31.3,2.3,111
2011-08-14 06:15:03,20.4,9.2,11.2,31.6,2.3,112
2011-08-14 06:20:03,20.5,8.9,11.6,31.8,2.3,111
2011-08-14 06:25:03,20.6,8.9,11.7,31.9,2.3,112
2011-08-14 06:30:03,20.7,7.8,12.9,32.0,2.3,111
2011-08-14 06:35:03,20.7,8.1,12.6,32.0,2.3,111
2011-08-14 06:40:03,20.7,8.6,12.1,32.1,2.3,112
2011-08-14 06:45:03,20.7,9.0,11.7,32.1,2.3,111
2011-08-14 06:50:03,20.8,9.0,11.8,32.1,2.3,112
2011-08-14 06:55:03,20.8,8.1,12.7,32.2,2.3,111
2011-08-14 07:00:03,20.8,7.7,13.1,32.2,2.3,112
2011-08-14 07:05:03,20.8,8.4,12.4,32.3,2.4,111
2011-08-14 07:10:03,20.8,7.9,12.9,32.3,2.4,111
2011-08-14 07:15:03,20.9,8.9,12.0,32.3,2.5,111
2011-08-14 07:20:03,21.0,8.5,12.5,32.4,2.3,112
2011-08-14 07:25:03,21.1,8.5,12.7,32.4,2.3,111
2011-08-14 07:30:03,21.2,8.2,13.0,32.4,2.3,112
2011-08-14 07:35:03,21.3,8.4,12.9,32.4,2.3,112
2011-08-14 07:40:03,21.4,7.9,13.4,32.4,2.3,111
2011-08-14 07:45:03,21.3,8.4,13.0,32.4,2.3,112
2011-08-14 07:50:03,21.4,8.7,12.6,32.4,2.3,111
2011-08-14 07:55:03,21.5,8.7,12.8,32.5,2.3,112
2011-08-14 08:00:03,21.6,8.2,13.4,32.4,2.2,111
2011-08-14 08:05:03,21.4,8.4,13.1,32.4,2.3,112
2011-08-14 08:10:04,21.4,8.8,12.6,32.5,2.3,111
2011-08-14 08:15:04,21.5,9.0,12.5,32.5,2.2,112
2011-08-14 08:20:04,21.7,8.8,12.9,32.5,2.3,111
2011-08-14 08:25:04,21.9,8.8,13.1,32.5,2.3,112
2011-08-14 08:30:04,22.0,8.8,13.2,32.5,2.3,111
2011-08-14 08:35:04,22.1,9.4,12.7,32.5,2.3,111
2011-08-14 08:40:04,22.3,9.1,13.1,32.5,2.3,112
2011-08-14 08:45:04,22.3,9.3,13.1,32.5,2.3,111
2011-08-14 08:50:04,22.3,9.0,13.3,32.5,2.3,112
2011-08-14 08:55:04,22.3,9.0,13.3,32.5,2.3,111
2011-08-14 09:00:04,22.5,8.5,14.0,32.5,2.3,111
2011-08-14 09:05:04,22.6,4.8,17.7,32.5,2.3,111
2011-08-14 09:10:04,25.1,0.2,24.9,32.5,2.3,112
2011-08-14 09:15:04,26.7,2.5,24.2,32.5,2.3,111
2011-08-14 09:20:04,27.4,3.2,24.3,32.5,2.3,112
2011-08-14 09:25:04,28.1,4.8,23.3,32.5,2.3,111
2011-08-14 09:30:04,28.6,7.4,21.3,32.5,2.3,112
2011-08-14 09:35:04,29.1,7.3,21.8,32.5,2.3,112
2011-08-14 09:40:04,29.3,7.8,21.5,32.5,2.3,111
2011-08-14 09:45:04,29.3,7.4,22.0,32.6,2.3,111
2011-08-14 09:50:04,29.3,6.8,22.5,32.5,2.3,112
2011-08-14 09:55:04,29.8,5.6,24.2,32.5,2.3,112
2011-08-14 10:00:04,30.2,6.2,23.9,32.6,2.3,111
2011-08-14 10:05:04,30.5,6.6,23.9,32.5,2.3,112
2011-08-14 10:10:04,30.4,5.9,24.5,32.6,2.3,111
2011-08-14 10:15:04,30.3,7.0,23.3,32.6,2.3,112
2011-08-14 10:20:04,30.7,6.3,24.4,32.6,2.3,111
2011-08-14 10:25:04,30.4,0.5,29.9,32.5,2.3,112
2011-08-14 10:30:04,30.2,1.3,29.0,32.6,2.3,111
2011-08-14 10:35:04,30.8,2.6,28.2,32.6,2.3,112
2011-08-14 10:40:04,31.3,7.2,24.0,32.6,2.3,112
2011-08-14 10:45:04,31.0,3.1,27.9,32.5,2.3,111
2011-08-14 10:50:04,30.1,-3.2,33.4,32.5,2.3,112
2011-08-14 10:55:04,29.1,1.2,27.9,32.6,2.3,111
2011-08-14 11:00:04,30.6,1.5,29.1,32.6,2.3,111
2011-08-14 11:05:04,31.7,8.4,23.3,32.6,2.3,112
2011-08-14 11:10:04,32.3,9.3,23.1,32.6,1.9,112
2011-08-14 11:15:04,32.8,10.0,22.8,32.6,1.3,111
2011-08-14 11:20:04,32.2,10.7,21.4,32.5,1.4,112
2011-08-14 11:25:04,31.3,10.5,20.9,32.6,2.1,111
2011-08-14 11:30:04,28.4,11.3,17.1,32.6,2.3,112
2011-08-14 11:35:04,26.5,10.3,16.1,32.5,2.3,111
2011-08-14 11:40:04,25.6,8.1,17.5,32.6,2.3,112
2011-08-14 11:45:04,25.5,6.9,18.6,32.6,2.3,111
2011-08-14 11:50:04,27.0,7.1,19.9,32.6,2.3,111
2011-08-14 11:55:04,30.4,4.7,25.7,32.6,2.3,112
2011-08-14 12:00:04,31.8,6.5,25.3,32.6,2.3,111
2011-08-14 12:05:04,32.9,11.3,21.6,32.6,1.5,112
2011-08-14 12:10:04,32.6,10.9,21.7,32.6,1.4,111
2011-08-14 12:15:04,31.7,10.6,21.1,32.5,1.8,111
2011-08-14 12:20:04,29.8,11.1,18.7,32.5,2.3,112
2011-08-14 12:25:04,26.7,11.5,15.2,32.5,2.3,111
2011-08-14 12:30:04,25.6,11.1,14.5,32.6,2.3,112
2011-08-14 12:35:04,25.4,9.5,15.8,32.6,2.3,111
2011-08-14 12:40:04,26.2,6.6,19.6,32.6,2.3,112
2011-08-14 12:45:04,30.1,4.1,25.9,32.6,2.4,112
2011-08-14 12:50:04,32.6,3.4,29.2,32.6,1.8,111
2011-08-14 12:55:04,34.2,5.0,29.2,32.6,1.3,112
2011-08-14 13:00:04,35.2,8.2,27.0,32.6,1.8,111
2011-08-14 13:05:04,35.0,10.7,24.3,32.6,1.8,111
2011-08-14 13:10:04,34.1,11.3,22.8,32.6,1.7,111
2011-08-14 13:15:04,33.2,10.9,22.3,32.6,1.4,111
2011-08-14 13:20:04,32.3,10.8,21.5,32.5,1.3,112
2011-08-14 13:25:04,31.6,9.5,22.1,32.5,1.6,111
2011-08-14 13:30:04,30.9,5.8,25.1,32.5,2.2,112
2011-08-14 13:35:04,31.8,8.9,22.9,32.6,1.9,111
2011-08-14 13:40:04,33.2,6.3,26.9,32.6,1.2,112
2011-08-14 13:45:04,33.4,5.7,27.7,32.6,1.3,111
2011-08-14 13:50:04,34.1,6.4,27.7,32.6,1.7,112
2011-08-14 13:55:04,34.4,7.6,26.8,32.6,1.8,111
2011-08-14 14:00:04,34.6,9.9,24.7,32.6,1.9,112
2011-08-14 14:05:04,34.1,10.0,24.1,32.6,1.8,111
2011-08-14 14:10:04,32.4,10.2,22.1,32.6,1.4,111
2011-08-14 14:15:04,31.7,10.0,21.7,32.6,1.2,111
2011-08-14 14:20:04,31.9,9.2,22.8,32.6,1.2,112
2011-08-14 14:25:04,30.8,10.3,20.4,32.6,1.4,111
2011-08-14 14:30:04,28.6,11.3,17.3,32.6,2.1,111
2011-08-14 14:35:04,26.8,12.6,14.2,32.6,2.3,112
2011-08-14 14:40:04,27.0,11.5,15.6,32.6,2.3,111
2011-08-14 14:45:04,26.4,11.6,14.9,32.5,2.3,111
2011-08-14 14:50:04,25.7,12.4,13.3,32.5,2.3,112
2011-08-14 14:55:04,25.1,11.8,13.4,32.4,2.3,111
2011-08-14 15:00:04,24.6,11.7,12.9,32.5,2.3,111
2011-08-14 15:05:04,24.3,12.0,12.4,32.5,2.3,112
2011-08-14 15:10:04,24.3,10.4,14.0,32.5,2.3,111
2011-08-14 15:15:04,24.7,7.9,16.8,32.6,2.3,112
2011-08-14 15:20:04,24.9,10.6,14.3,32.5,2.3,111
2011-08-14 15:25:04,24.7,9.6,15.1,32.5,2.3,112
2011-08-14 15:30:04,24.8,10.7,14.1,32.6,2.3,111
2011-08-14 15:35:04,26.0,11.1,14.8,32.6,2.3,112
2011-08-14 15:40:04,28.5,6.1,22.4,32.6,2.3,112
2011-08-14 15:45:04,31.9,6.0,25.9,32.6,2.0,111
2011-08-14 15:50:04,33.1,6.5,26.6,32.6,1.2,112
2011-08-14 15:55:04,33.1,8.2,24.9,32.6,1.2,111
2011-08-14 16:00:04,32.6,8.2,24.5,32.6,1.2,112
2011-08-14 16:05:04,32.9,7.5,25.4,32.6,1.2,111
2011-08-14 16:10:04,32.0,10.5,21.5,32.6,1.1,112
2011-08-14 16:15:04,30.1,12.9,17.1,32.6,0.9,111
2011-08-14 16:20:04,30.5,7.6,23.0,32.6,1.2,112
2011-08-14 16:25:04,32.0,5.5,26.5,32.6,1.2,111
2011-08-14 16:30:04,31.2,8.1,23.1,32.5,1.6,111
2011-08-14 16:35:04,30.4,10.1,20.3,32.5,2.1,112
2011-08-14 16:40:04,27.3,10.9,16.4,32.5,2.3,111
2011-08-14 16:45:04,26.0,13.0,13.0,32.6,2.3,112
2011-08-14 16:50:04,26.6,10.7,15.9,32.6,2.3,111
2011-08-14 16:55:04,26.8,10.5,16.2,32.6,2.3,112
2011-08-14 17:00:04,26.6,9.6,17.0,32.5,2.3,111
2011-08-14 17:05:04,26.0,8.3,17.6,32.5,2.3,112
2011-08-14 17:10:04,25.4,8.8,16.5,32.5,2.3,111
2011-08-14 17:15:04,24.9,11.1,13.8,32.5,2.3,112
2011-08-14 17:20:04,24.8,10.9,13.9,32.5,2.3,111
2011-08-14 17:25:04,24.6,10.4,14.2,32.5,2.3,112
2011-08-14 17:30:04,24.5,10.9,13.5,32.5,2.3,111
2011-08-14 17:35:04,24.3,11.2,13.1,32.4,2.3,111
2011-08-14 17:40:04,24.2,11.5,12.7,32.4,2.3,112
2011-08-14 17:45:04,24.1,11.6,12.5,32.4,2.3,111
2011-08-14 17:50:04,24.0,11.2,12.8,32.4,2.3,111
2011-08-14 17:55:04,23.9,11.1,12.8,32.4,2.3,111
2011-08-14 18:00:04,23.9,10.4,13.4,32.5,2.3,111
2011-08-14 18:05:04,24.1,11.7,12.4,32.6,2.3,112
2011-08-14 18:10:04,25.8,5.6,20.2,32.5,2.3,111
2011-08-14 18:15:04,28.4,-0.1,28.5,32.4,2.3,111
2011-08-14 18:20:04,28.7,5.1,23.7,32.5,2.3,112
2011-08-14 18:25:04,27.8,8.2,19.6,32.5,2.3,111
2011-08-14 18:30:04,28.2,6.3,21.9,32.5,2.3,111
2011-08-14 18:35:04,29.2,3.4,25.8,32.6,2.3,112
2011-08-14 18:40:04,30.0,1.6,28.3,32.6,2.3,111
2011-08-14 18:45:04,30.5,0.2,30.3,32.6,2.3,111
2011-08-14 18:50:04,30.2,-2.4,32.6,32.4,2.3,112
2011-08-14 18:55:04,29.4,-2.0,31.5,32.5,2.3,112
2011-08-14 19:00:04,29.0,-1.5,30.5,32.5,2.3,111
2011-08-14 19:05:04,29.0,-1.8,30.7,32.5,2.3,112
2011-08-14 19:10:04,28.8,-0.2,29.0,32.5,2.3,111
2011-08-14 19:15:04,29.0,1.5,27.5,32.5,2.3,111
2011-08-14 19:20:04,29.4,1.3,28.1,32.5,2.3,112
2011-08-14 19:25:04,29.7,0.0,29.7,32.5,2.3,111
2011-08-14 19:30:04,29.8,0.0,29.8,32.5,2.3,112
2011-08-14 19:35:04,29.8,-1.7,31.4,32.5,2.3,112
2011-08-14 19:40:04,29.6,-2.3,32.0,32.5,2.3,112
2011-08-14 19:45:04,29.5,-2.9,32.4,32.5,2.3,111
2011-08-14 19:50:04,29.3,-3.2,32.5,32.4,2.3,112
2011-08-14 19:55:04,29.2,-3.5,32.7,32.4,2.3,112
2011-08-14 20:00:04,28.9,-3.8,32.7,32.3,2.3,112
2011-08-14 20:05:04,28.6,-4.0,32.7,32.2,2.3,112
2011-08-14 20:10:04,28.3,-4.4,32.7,32.1,2.3,112
2011-08-14 20:15:04,28.0,-4.8,32.7,32.0,2.3,111
2011-08-14 20:20:04,27.6,-4.7,32.4,31.7,2.3,112
2011-08-14 20:25:04,27.3,-5.1,32.3,31.4,2.3,111
2011-08-14 20:30:04,27.0,-5.1,32.1,30.9,2.3,111
2011-08-14 20:35:04,26.8,-5.1,31.9,30.1,2.3,112
2011-08-14 20:40:04,26.5,-5.4,31.9,28.9,2.3,111
2011-08-14 20:45:04,26.4,-5.5,31.9,26.9,2.3,112
2011-08-14 20:50:04,26.2,-5.7,31.9,23.7,2.3,111
2011-08-14 20:55:04,26.1,-5.8,32.0,19.1,2.5,111
2011-08-14 21:00:04,26.1,-5.9,32.0,13.9,2.4,112
2011-08-14 21:05:04,25.9,-6.0,31.9,9.3,2.3,111
2011-08-14 21:10:04,25.8,-6.1,31.9,5.8,2.3,112
2011-08-14 21:15:04,25.7,-6.3,32.0,3.4,2.3,112
2011-08-14 21:20:04,25.6,-6.6,32.2,2.0,2.3,111
2011-08-14 21:25:04,25.0,-6.6,31.7,1.2,2.3,112
2011-08-14 21:30:04,25.4,-6.5,31.9,0.7,2.2,112
2011-08-14 21:35:04,25.3,-6.4,31.6,0.4,2.2,112
2011-08-14 21:40:04,25.1,-6.4,31.5,0.3,2.3,112
2011-08-14 21:45:04,24.9,-6.8,31.6,0.2,2.3,112
2011-08-14 21:50:04,24.7,-6.7,31.4,0.1,2.3,112
2011-08-14 21:55:04,24.7,-6.8,31.5,0.1,2.3,112
2011-08-14 22:00:04,24.7,-6.7,31.5,0.1,2.3,112
2011-08-14 22:05:04,24.7,-6.3,31.0,0.1,2.3,112
2011-08-14 22:10:04,24.6,-6.3,31.0,0.1,2.3,112
2011-08-14 22:15:04,24.5,-6.5,31.0,0.1,2.3,112
2011-08-14 22:20:04,24.5,-6.7,31.2,0.1,2.3,112
2011-08-14 22:25:04,24.6,-6.9,31.5,0.1,2.3,111
2011-08-14 22:30:04,24.5,-6.9,31.4,0.1,2.3,112
2011-08-14 22:35:04,24.0,-6.8,30.9,0.1,2.3,112
2011-08-14 22:40:04,24.4,-6.8,31.2,0.1,2.3,112
2011-08-14 22:45:04,24.4,-6.8,31.2,0.1,2.3,112
2011-08-14 22:50:04,24.4,-6.9,31.3,0.1,2.3,111
2011-08-14 22:55:04,24.4,-7.0,31.4,0.1,2.3,112
2011-08-14 23:00:04,24.4,-7.0,31.4,0.1,2.3,111
2011-08-14 23:05:04,24.4,-7.1,31.5,0.1,2.3,112
2011-08-14 23:10:04,24.3,-7.1,31.4,0.1,2.3,111
2011-08-14 23:15:05,24.2,-7.1,31.4,0.1,2.3,112
2011-08-14 23:20:05,24.0,-7.3,31.3,0.1,2.3,111
2011-08-14 23:25:05,24.0,-7.3,31.2,0.1,2.3,111
2011-08-14 23:30:05,23.9,-7.2,31.2,0.1,2.3,112
2011-08-14 23:35:05,23.9,-7.3,31.2,0.2,2.3,111
2011-08-14 23:40:05,23.8,-7.4,31.3,0.2,2.3,111
2011-08-14 23:45:05,23.3,-7.6,30.9,0.3,2.2,111
2011-08-14 23:50:05,23.6,-7.7,31.3,0.3,2.2,111
2011-08-14 23:55:05,23.6,-7.8,31.3,0.3,2.2,111
